Home   Weather   Eucla   Past weeks

Flag for Australia Past Weather in Eucla, Western Australia, Australia — Yesterday and Last 2 Weeks

Now
58 °F

Cool.


Feels Like: 57 °F
Forecast: 51 / 66 °F
Wind: 5 mph from Southeast

Location: Eucla Amo

Current Time: Apr 26, 2017 at 8:51:29 pm

Latest Report: Apr 26, 2017 at 6:45 pm


Visibility: N/A

Pressure: 30.34 "Hg

Humidity: 61%

Dew Point: 44 °F

Location of EuclaLocation

Past Weather in Eucla — Graph

°F

Eucla Temperature Yesterday

Maximum temperature yesterday: 70 °F (at 11:45 am)
Minimum temperature yesterday: 54 °F (at 3:45 am)
Average temperature yesterday: 61 °F

High & Low Weather Summary for the Past Weeks

 TemperatureHumidityPressure
High86 °F (Apr 17, 12:45 pm)96% (Apr 15, 5:45 am)30.38 "Hg (Apr 15, 5:45 am)
Low51 °F (Apr 12, 6:45 am)15% (Apr 17, 11:45 am)29.85 "Hg (Apr 17, 2:45 pm)
Average65 °F69%30.12 "Hg
* Reported Apr 11 6:45 pm — Apr 26 6:45 pm, Eucla, Weather by CustomWeather, © 2017

Note: Actual official high and low records may vary slightly from our data, if they occured in-between our weather recording intervals... More about our weather records

Advertising

Eucla Weather History for the Previous 24 Hours

Scroll right to see more
 ConditionsComfort  
Time TempWeatherWind HumidityBarometerVisibility
6:45 pm
Wed, Apr 26
58 °FCool.5 mph61%30.34 "HgN/A
5:45 pm60 °FRefreshingly cool.8 mph57%30.34 "HgN/A
3:45 pm64 °FPassing clouds.8 mph49%30.33 "Hg25 mi
2:45 pm65 °FMild.8 mph47%30.32 "HgN/A
12:45 pm66 °FMild.8 mph46%30.34 "HgN/A
11:45 am66 °FMild.9 mph46%30.36 "HgN/A
9:45 am64 °FPartly sunny.8 mph53%30.38 "Hg25 mi
8:45 am61 °FRefreshingly cool.8 mph53%30.36 "HgN/A
6:45 am55 °FCool.5 mph68%30.32 "HgN/A
5:45 am54 °FCool.3 mph71%30.32 "HgN/A
3:45 am56 °FCool.8 mph71%30.29 "HgN/A
2:45 am57 °FCool.7 mph72%30.29 "HgN/A
12:45 am59 °FCool.6 mph81%30.27 "HgN/A
11:45 pm
Tue, Apr 25
59 °FCool.8 mph71%30.27 "HgN/A
9:45 pm60 °FCool.8 mph82%30.26 "HgN/A
8:45 pm60 °FCool.12 mph86%30.25 "HgN/A
Weather by CustomWeather, © 2017

See weather overviewHow to use our weather pages